Regional Weather Roundup
Issued by NWS

Home | Current Version | Previous Version | Text Only | Print | Product List | Glossary Off
Versions: 1 2 3 4 5 6 7 8 9 10 11 12 13 14 15 16 17 18 19 20 21 22 23 24 25 26 27 28 29 30 31 32 33 34 35 36 37 38 39 40 41 42 43 44 45 46 47 48 49 50

000
ASUS45 KBOI 250310
RWRID

IDAHO REGIONAL WEATHER ROUNDUP
NATIONAL WEATHER SERVICE BOISE ID
900 PM MDT SUN MAY 24 2015

NOTE: "FAIR" INDICATES FEW OR NO CLOUDS BELOW 12000 FEET
WITH NO SIGNIFICANT WEATHER AND/OR OBSTRUCTIONS TO VISIBILITY

IDZ012-014-250400-
SOUTHWEST IDAHO


CITY           SKY/WX    TMP DP  RH WIND       PRES   REMARKS
BOISE          CLEAR     73  40  30 NW8       29.81R
CALDWELL       CLEAR     72  43  35 NW7       29.81S
MOUNTAIN HOME  PTCLDY    62  50  64 E17G28    29.85R
$$

IDZ016-017-250400-
SOUTHCENTRAL IDAHO


CITY           SKY/WX    TMP DP  RH WIND       PRES   REMARKS
BURLEY         CLOUDY    53  49  86 SW7       29.90S
JEROME         CLOUDY    54  46  74 S10       29.90F
TWIN FALLS     CLOUDY    54  47  77 S9        29.90S
$$

IDZ019>023-250400-
SOUTHEAST IDAHO


CITY           SKY/WX    TMP DP  RH WIND       PRES   REMARKS
IDAHO FALLS    MOCLDY    57  48  72 SE9       29.89R
POCATELLO      PTCLDY    56  48  74 SW7       29.91R
REXBURG        MOCLDY    57  44  62 E7        29.89R
$$

IDZ006-010-011-018-031-032-250400-
CENTRAL IDAHO MOUNTAINS


CITY           SKY/WX    TMP DP  RH WIND       PRES   REMARKS
MCCALL         PTCLDY    58  40  51 NW12      29.90S
HAILEY         RAIN      54  50  87 NW6       29.99R
STANLEY          N/A     50  39  66 S5        29.99R
SALMON         MOCLDY    57  43  58 N5        29.89R
CHALLIS        PTCLDY    54  40  59 NW12      29.92R
$$

IDZ002-004-006-007-026-250400-
NORTHERN IDAHO


CITY           SKY/WX    TMP DP  RH WIND       PRES   REMARKS
LEWISTON       MOCLDY    73  52  47 E5        29.81S
LOWELL           N/A     61  58  90 N5        29.83R
COEUR D`ALENE  CLOUDY    68  48  49 S9        29.82S
MULLAN PASS    CLOUDY    46  40  79 S7        29.99F
$$



USA.gov is the U.S. government's official web portal to all federal, state and local government web resources and services.